Weather Service Report


678 
ASUS44 KJAN 030010
RWRMS 

MISSISSIPPI HOURLY WEATHER ROUNDUP
NATIONAL WEATHER SERVICE JACKSON MS
700 PM CDT THU JUL 02 2015

NOTE: "FAIR: INDICATES FEW OR NO CLOUDS BELOW 12,000 FEET WITH NO
SIGNIFICANT WEATHER AND/OR OBSTRUCTIONS TO VISIBILITY.

MSZ001>002-007>008-010>013-018>021-025>028-034>036-030100-
NORTHWEST MISSISSIPPI
  
CITY           SKY/WX    TMP DP  RH WIND       PRES   REMARKS
CLARKSDALE     FAIR      86  73  66 SW14      29.89S HX  93           
CLEVELAND      FAIR      84  77  80 SW10      29.90S HX  93           
GREENWOOD      PTSUNNY   83  72  69 SW10      29.92F                  
6HR MIN TEMP:  83; 6HR MAX TEMP:  87;                                

GREENVILLE     PTSUNNY   86  74  67 SW14      29.90F HX  94           
6HR MIN TEMP:  83; 6HR MAX TEMP:  91;                                

OLIVE BRANCH   CLOUDY    82  73  74 SW12      29.86S                  
TUNICA         MOCLDY    88  68  51 SW12G20   29.87S HX  91           
$$

MSZ003>006-009-014>017-022>024-029>033-037>039-030100-
NORTHEAST MISSISSIPPI
  
CITY           SKY/WX    TMP DP  RH WIND       PRES   REMARKS
COLUMBUS AFB   PTSUNNY   83  73  72 SW8       29.92F                  
6HR MIN TEMP:  83; 6HR MAX TEMP:  88;                                

CORINTH        MOCLDY    81  70  69 S6        29.87F                  
GOLDN TRIANGLE PTSUNNY   82  72  69 SW9       29.94S                  
STARKVILLE     FAIR      81  73  78 CALM      29.94F                  
TUPELO         MOSUNNY   83  73  72 W9        29.90F                  
6HR MIN TEMP:  80; 6HR MAX TEMP:  85;                                

$$

MSZ040-058-030100-
CENTRAL MISSISSIPPI
  
CITY           SKY/WX    TMP DP  RH WIND       PRES   REMARKS
JACKSON INTL   CLOUDY    85  71  63 SW9       29.97F HX  90           
6HR MIN TEMP:  85; 6HR MAX TEMP:  89;                                

JACKSON HAWKNS CLOUDY    84  71  65 SW12      29.97F                  
6HR MIN TEMP:  84; 6HR MAX TEMP:  89;                                

MERIDIAN KEY   CLOUDY    83  75  77 S7        29.98S HX  90           
6HR MIN TEMP:  83; 6HR MAX TEMP:  87;                                

MERIDIAN NAS   CLOUDY    83  73  72 SW3       29.97F                  
6HR MIN TEMP:  83; 6HR MAX TEMP:  86;                                

VICKSBURG      PTSUNNY   85  74  69 VRB7      29.95F HX  92           
6HR MIN TEMP:  85; 6HR MAX TEMP:  90;                                

$$

MSZ059>079-030100-
SOUTH MISSISSIPPI
  
CITY           SKY/WX    TMP DP  RH WIND       PRES   REMARKS
BROOKHAVEN     FAIR      84  75  74 S6        30.02F HX  92           
HATTIESBURG    PTSUNNY   88  75  65 SW7       30.01F HX  97           
6HR MIN TEMP:  88; 6HR MAX TEMP:  91;                                

MCCOMB         PTSUNNY   85  76  74 SW6       30.01F HX  94           
6HR MIN TEMP:  85; 6HR MAX TEMP:  89;                                

NATCHEZ        PTSUNNY   84  73  70 SW6       30.00S HX  91           
6HR MIN TEMP:  84; 6HR MAX TEMP:  88;                                

PINE BELT      PTSUNNY   82  68  61 SW5       30.03S                  
6HR MIN TEMP:  82; 6HR MAX TEMP:  90;                                

$$

MSZ080>082-030100-
COASTAL MISSISSIPPI
  
CITY           SKY/WX    TMP DP  RH WIND       PRES   REMARKS
BAY ST LOUIS   SUNNY     84  72  65 MISG      30.02F                  
BILOXI         MOSUNNY   84  78  84 SW10      30.02F HX  95           
6HR MIN TEMP:  84; 6HR MAX TEMP:  88;                                

PASCAGOULA     MOSUNNY   84  76  76 SW8       30.03F HX  93           
6HR MIN TEMP:  84; 6HR MAX TEMP:  88;                                

GULFPORT       MOSUNNY   85  77  77 S7        30.02F HX  95           
6HR MIN TEMP:  85; 6HR MAX TEMP:  88;                                

$$

Return to Home page


Western Regional Climate Center, wrcc@dri.edu